Regional Weather Roundup
Issued by NWS

Home | Current Version | Previous Version | Graphics & Text | Print | Product List | Glossary On
Versions: 1 2 3 4 5 6 7 8 9 10 11 12 13 14 15 16 17 18 19 20 21 22 23 24 25 26 27 28 29 30 31 32 33 34 35 36 37 38 39 40 41 42 43 44 45 46 47 48 49 50
000
ASUS43 KLOT 231107
RWRIL

ILLINOIS REGIONAL WEATHER ROUNDUP
NATIONAL WEATHER SERVICE CHICAGO/ROMEOVILLE IL
600 AM CDT THU MAR 23 2017

NOTE: "FAIR" INDICATES FEW OR NO CLOUDS BELOW 12,000 FEET WITH NO
SIGNIFICANT WEATHER AND/OR OBSTRUCTIONS TO VISIBILITY.

* THESE STATIONS ARE NOT UNDER NWS QUALITY CONTROL. THEY ALSO MAY NOT
  REPORT WEATHER SUCH AS PRECIPITATION OR FOG.

ILZ001-002-007-009-015-016-024-231200-
NORTHWEST ILLINOIS

CITY           SKY/WX    TMP DP  RH WIND       PRES   REMARKS
MOLINE         CLOUDY    34  23  64 E12       30.32F WCI  25
STERLING*      CLOUDY    32  23  69 E10       30.36F WCI  24
SAVANNA*       CLOUDY    33  21  62 SE9       30.35F WCI  25
$$

ILZ003-004-008-010-011-017-018-231200-
NORTH CENTRAL ILLINOIS

CITY           SKY/WX    TMP DP  RH WIND       PRES   REMARKS
ROCKFORD       CLOUDY    34  20  56 SE12      30.39F WCI  25
FREEPORT*      CLOUDY    32  22  66 SE8       30.37F WCI  24
ROCHELLE*      MOCLDY    32  22  66 SE13      30.38F WCI  22
DE KALB*       CLOUDY    32  21  64 SE12      30.39S WCI  23
PERU*          CLOUDY    32  21  64 SE13      30.37F WCI  22
$$

ILZ005-006-012>014-019>023-231200-
NORTHEAST ILLINOIS

CITY           SKY/WX    TMP DP  RH WIND       PRES   REMARKS
CHICAGO-OHARE  CLOUDY    33  19  56 SE10      30.41S WCI  25
CHICAGO-MIDWAY CLOUDY    32  20  61 SE9       30.42F WCI  24
AURORA         CLOUDY    33  21  61 SE14      30.39F WCI  23
LANSING*       CLOUDY    30  22  73 SE7       30.44S WCI  23
JOLIET*        CLOUDY    33  23  68 SE12      30.41F WCI  24
WAUKEGAN       CLOUDY    33  23  66 SE13      30.41S WCI  24
DUPAGE AIRPORT CLOUDY    32  21  64 SE6       30.40S WCI  26
KANKAKEE*      CLOUDY    31  23  72 E10       30.42S WCI  22
WHEELING       CLOUDY    32  21  64 SE9       30.43S WCI  24
MORRIS*        CLOUDY    32  22  67 SE10      30.38F WCI  24
ROMEOVILLE*    CLOUDY    32  24  73 SE12      30.41S WCI  23
NORTHERLY ISL    N/A     32  21  64 SE12        N/A  WCI  23
$$

LMZ740>746-231200-
SOUTHERN LAKE MICHIGAN

STATION/POSITION SKY/WX   TEMP    WIND        PRES    VSBY  WAVE
                          AIR SEA DIR/SP/G                  HT/PER
                          (F)     (DEG/KT/KT) (MB)    (MI)  (FT/S)
HARRISON CRIB              33     150/ 20/ 23   N/A
BURNHAM HARBOR             33     130/ 10/ 13   N/A
CALUMET HARBOR             31     140/  7/ 11 1029.8R
BURNS HARBOR               30     140/  9/ 17 1030.8S
MICHIGAN CITY              29     110/ 10/ 16   N/A
$$

ILZ025>027-034>036-040-047-049-050-058-095>099-231200-
WEST-CENTRAL ILLINOIS

CITY           SKY/WX    TMP DP  RH WIND       PRES   REMARKS
QUINCY         CLOUDY    37  27  67 SE10      30.26S WCI  30
GALESBURG*     CLOUDY    35  24  63 SE8         N/A  WCI  29
MACOMB*        CLOUDY    36  23  59 SE13      30.33S WCI  28
JACKSONVILLE*  CLOUDY    37  22  55 E12       30.31F WCI  29
PITTSFIELD*    LGT RAIN  37  30  76 E9        30.29S WCI  30
$$

ILZ028>032-037-038-041>044-048-051>054-059>061-231200-
CENTRAL ILLINOIS

CITY           SKY/WX    TMP DP  RH WIND       PRES   REMARKS
PONTIAC        CLOUDY    31  26  81 E16       30.38F WCI  20
BLOOMINGTON    MOCLDY    30  23  75 SE12      30.36F WCI  20
DECATUR        CLOUDY    34  22  61 E10       30.35S WCI  26
PEORIA         CLOUDY    35  22  58 SE9       30.35S WCI  28
LACON*         CLOUDY    32  25  74 SE8       30.35F WCI  25
LINCOLN*       CLOUDY    35  24  64 SE9       30.36S WCI  28
SPRINGFIELD    CLOUDY    38  22  52 SE13      30.34R WCI  30
TAYLORVILLE    CLOUDY    36  22  58 SE9       30.35R WCI  29
$$

ILZ033-039-045-046-055>057-062-063-231200-
EAST-CENTRAL ILLINOIS

CITY           SKY/WX    TMP DP  RH WIND       PRES   REMARKS
CHAMPAIGN      MOCLDY    30  22  72 E10       30.37S WCI  21
RANTOUL*       CLOUDY    30  26  85 E6        30.39R WCI  24
MATTOON        PTCLDY    33  21  61 SE14      30.35S WCI  23
PARIS*         CLOUDY    31  24  75 E8        30.40R WCI  23
$$

ILZ079-100>102-231200-
SOUTHWEST ILLINOIS

CITY           SKY/WX    TMP DP  RH WIND       PRES   REMARKS
ALTON          LGT RAIN  37  28  70 E8        30.31R WCI  30
BELLEVILLE     LGT RAIN  38  30  72 E9        30.29F WCI  31
CAHOKIA*       LGT RAIN  38  29  70 E8        30.31R WCI  32
SPARTA*        LGT RAIN  38  29  71 E5        30.33R WCI  34
$$

ILZ064>066-069>071-074>076-080>082-084>086-088>090-092>094-231200-
SOUTH-CENTRAL ILLINOIS

CITY           SKY/WX    TMP DP  RH WIND       PRES   REMARKS
CARBONDALE     CLOUDY    41  23  48 CALM      30.35R
CAIRO*         CLOUDY    43  26  51 E8        30.31S
EFFINGHAM*     CLOUDY   N/A N/A N/A E7        30.36S
MARION         CLOUDY    41  23  48 E8        30.34R
MT. VERNON     PTCLDY    36  22  56 NE5       30.34R WCI  32
CENTRALIA*     CLOUDY    37  25  62 E7        30.32R WCI  31
SALEM*         CLOUDY    38  23  54 E3        30.34R
METROPOLIS*    CLOUDY    41  25  52 E3        30.33R
$$

ILZ067-068-072-073-078-083-087-091-231200-
SOUTHEAST ILLINOIS

CITY           SKY/WX    TMP DP  RH WIND       PRES   REMARKS
LAWRENCEVILLE  CLOUDY    34  21  59 E6        30.38R WCI  29
FLORA*         CLOUDY    36  24  62 E9        30.34F WCI  29
FAIRFIELD*     CLOUDY    36  24  61 E8        30.32F WCI  30
HARRISBURG*    CLOUDY    38  25  60 E10       30.32F WCI  31
ROBINSON*      CLOUDY    32  22  66 E3        30.40S
CARMI*         CLOUDY    35  25  66 E8        30.33F WCI  29
$$

ABBREVIATIONS USED IN REMARKS
   TC - TEMPERATURE IN CELSIUS
  WCI - WIND CHILL INDEX
   HX - HEAT INDEX
  VSB - VISIBILITY
$$





USA.gov is the U.S. government's official web portal to all federal, state and local government web resources and services.